Temperature
21 20 20 21 21 21 23 24 24 24 25 25 25 24 23 22 21 19 18 18 18 18 17 18 18 17 17 17 17 17 17 17 17 17 17 17 17 17 17 17 17 17 17 17 17 17 17 17 18
21 20 21 21 21 22 23 23 24 24 24 24 24 24 23 21 20 18 18 18 18 17 17 17 17 17 17 17 17 17 17 17 17 17 17 17 17 17 17 17 16 16 17 17 17 17 17 17 17
21 21 21 22 22 23 23 24 24 24 24 24 24 23 22 20 19 18 18 18 18 17 17 17 17 17 17 17 17 17 17 16 16 16 16 16 16 16 16 16 16 16 16 16 17 17 17 17 17
21 21 23 23 23 23 24 24 25 25 25 24 23 22 20 20 19 19 19 18 18 17 17 17 17 17 17 17 17 16 16 16 16 16 16 16 16 16 16 16 16 16 16 16 16 17 17 17 17
21 22 23 23 23 24 25 25 25 25 24 23 22 20 19 19 19 19 19 19 18 17 17 17 17 17 17 17 16 16 16 16 16 16 16 16 16 16 16 16 16 16 16 16 16 16 16 17 17
22 23 23 23 23 25 25 25 25 24 24 23 21 20 19 20 19 19 19 19 18 17 17 17 17 17 17 17 16 16 16 16 16 16 16 16 16 16 16 16 15 15 16 16 16 16 16 16 17
22 23 23 23 23 24 25 25 25 24 24 23 22 20 19 19 19 19 19 19 18 18 17 17 17 17 17 17 17 16 16 16 16 16 16 16 16 16 16 15 15 15 16 16 16 16 16 16 17
22 23 24 23 23 23 25 25 24 24 23 23 22 21 20 19 19 19 19 19 19 18 18 18 17 17 17 17 17 16 16 16 16 16 16 16 16 16 15 15 15 16 16 16 16 16 16 16 17
23 23 23 23 23 23 24 24 24 24 24 23 22 21 20 20 20 19 19 19 19 19 19 18 18 18 17 17 17 17 16 16 16 16 16 16 16 16 16 16 16 15 15 16 16 16 16 16 17
24 22 23 24 24 24 24 24 24 24 23 22 21 20 20 20 20 20 20 20 20 19 19 19 19 18 18 18 17 17 17 16 16 16 16 16 16 16 16 16 16 15 15 15 16 16 16 16 16
25 23 24 25 25 24 24 24 24 23 22 22 21 20 20 20 21 21 21 20 20 20 20 19 19 19 18 18 17 17 17 17 16 16 16 16 16 16 16 16 16 15 15 16 16 16 16 16 17
24 24 24 25 24 25 24 24 24 23 22 22 21 21 21 21 21 21 21 20 20 20 20 19 19 19 19 18 18 18 17 17 17 17 16 16 16 16 16 16 16 16 15 16 16 16 16 16 17
24 24 24 24 24 24 24 24 23 23 22 22 21 21 21 21 21 21 21 20 20 20 20 19 19 19 19 18 18 18 17 17 17 17 17 16 16 16 16 16 16 16 15 16 16 16 16 16 16
24 24 24 24 24 24 24 23 23 23 22 22 22 21 22 22 22 21 21 21 20 20 20 19 19 19 19 18 18 18 17 17 17 17 17 17 16 16 16 16 16 15 15 16 16 16 16 16 16
24 23 23 23 23 24 24 23 23 22 22 22 22 22 22 22 22 22 21 21 21 20 20 19 19 19 18 18 18 17 17 17 17 17 17 17 16 16 16 16 15 15 15 15 16 16 16 16 16
23 22 21 23 23 23 23 21 22 22 22 22 22 22 22 22 22 22 22 21 21 20 20 19 19 19 18 18 18 17 17 17 16 16 16 16 16 16 16 16 16 15 15 15 15 16 16 16 16
22 22 21 22 23 23 23 21 22 22 22 22 22 22 22 22 22 22 22 21 21 20 20 19 19 18 18 18 17 17 17 17 16 16 16 16 16 16 16 16 15 15 15 15 15 15 16 16 16
22 22 22 22 22 23 22 22 22 22 23 22 22 22 22 22 22 22 21 21 21 20 20 19 19 19 18 18 18 17 17 16 16 16 16 16 15 15 15 15 15 15 15 15 15 15 15 16 16
24 23 23 22 23 22 22 22 22 22 22 22 22 22 22 22 22 22 21 21 21 20 20 19 19 18 18 18 18 17 17 16 16 16 16 15 15 15 15 15 15 15 15 15 15 15 15 16 16
24 23 22 22 22 22 21 22 22 22 22 22 22 23 23 22 22 21 21 21 21 20 20 20 19 19 18 18 18 17 17 17 16 16 16 16 15 15 15 15 15 15 15 15 15 15 15 15 15
23 22 22 22 22 22 21 21 21 23 23 23 23 23 23 23 22 21 21 21 21 20 20 20 19 19 18 18 18 17 17 17 16 16 16 16 15 15 15 15 15 15 15 15 15 15 15 15 15
22 23 23 22 21 21 21 20 20 22 22 23 23 23 23 23 22 22 22 21 21 20 20 20 19 19 18 18 18 17 17 17 17 16 16 16 16 15 15 15 15 15 15 15 15 15 15 15 15
22 23 23 22 21 21 22 21 21 21 21 22 23 23 23 23 23 22 22 21 21 20 20 20 19 19 18 18 18 18 17 17 17 17 16 16 16 16 15 15 15 15 15 15 15 15 15 15 15
23 22 22 22 21 20 22 21 21 22 22 23 23 23 23 23 23 22 22 21 21 20 20 20 19 19 18 18 18 18 17 17 17 17 16 16 16 16 16 15 15 15 15 15 15 15 15 15 15
22 21 20 20 20 20 23 22 23 24 24 24 24 24 23 23 22 22 21 21 20 20 20 19 19 19 18 18 18 18 17 17 17 17 17 16 16 16 16 15 15 15 15 15 15 15 15 15 15
22 22 20 19 20 21 23 22 24 25 26 25 25 24 23 23 22 22 21 21 20 20 19 19 19 19 18 18 18 18 17 17 17 17 17 17 16 16 16 16 15 15 15 15 15 15 15 15 14
22 22 22 21 21 20 22 24 25 25 25 25 25 24 24 23 22 22 21 20 20 20 19 19 19 19 18 18 18 18 18 17 17 17 17 17 16 16 16 16 16 15 15 15 15 15 15 15 15
23 22 22 21 20 20 22 23 23 24 25 25 25 25 24 23 22 21 21 20 20 19 19 19 19 19 18 18 18 18 18 17 17 17 17 17 16 16 16 16 16 16 15 15 15 15 15 15 15
22 22 22 22 21 21 21 22 26 25 25 25 25 25 24 23 22 21 21 20 20 19 19 19 19 19 18 18 18 18 18 17 17 17 17 16 16 16 16 16 16 15 15 15 15 15 14 14 14
23 23 22 21 21 22 21 22 25 26 26 26 25 25 24 23 22 21 21 20 20 19 19 19 19 19 18 18 18 18 18 17 17 17 17 16 16 16 16 16 15 15 15 15 15 15 14 14 14
Wind_Speed
11 10 6 3 2 2 1 4 6 7 7 10 10 11 14 14 10 10 4 7 12 13 15 14 14 14 14 14 14 13 13 13 13 13 12 12 11 11 11 10 10 10 9 9 9 8 8 8 7
9 8 4 3 2 0 4 6 9 9 7 7 10 14 14 12 12 9 5 9 14 15 15 14 15 15 15 15 14 14 13 13 12 12 12 11 11 10 10 9 9 9 9 8 8 8 7 7 7
10 7 3 2 2 2 4 7 9 9 7 7 10 12 9 7 9 6 7 12 14 15 16 15 15 15 15 15 15 14 13 13 12 11 10 10 10 9 9 8 8 8 8 8 7 7 7 6 6
5 3 3 2 2 5 7 7 7 8 7 9 11 9 9 9 8 10 12 14 16 15 16 15 16 16 15 15 14 13 13 12 11 10 9 9 8 8 8 8 7 7 7 7 7 6 6 5 5
4 4 3 0 4 7 8 7 7 8 9 12 14 12 11 11 12 12 12 15 16 15 16 16 16 15 15 14 14 13 12 11 10 9 8 8 7 7 7 7 7 7 7 7 6 5 5 5 4
3 4 2 1 5 7 7 7 9 11 12 13 14 13 9 8 10 11 12 13 14 14 15 15 15 15 14 13 12 11 10 9 9 7 6 5 5 5 6 7 7 7 7 7 6 5 5 4 4
4 4 3 2 4 6 7 7 8 8 9 9 11 11 9 8 9 11 11 10 11 12 13 14 14 14 13 12 11 9 8 7 6 5 3 2 2 3 5 6 6 6 6 6 5 4 4 3 3
4 4 3 2 4 6 7 7 7 10 8 9 11 9 10 9 9 10 10 9 9 9 9 9 12 13 13 12 10 8 6 4 3 2 1 2 2 3 4 6 6 5 5 4 4 4 4 4 4
4 3 2 2 4 6 7 8 7 8 9 10 12 15 14 13 10 9 9 8 7 8 7 7 7 9 10 11 10 9 7 4 3 3 3 4 2 4 4 7 4 2 2 2 3 4 6 6 7
3 2 1 2 4 7 7 7 7 8 11 15 17 17 15 12 10 9 9 9 8 8 7 7 6 6 7 7 7 5 5 4 2 2 2 3 5 4 5 5 3 2 3 4 6 8 8 8 6
2 0 1 4 6 7 7 6 6 8 10 14 17 17 14 11 9 8 8 8 7 7 6 6 6 6 6 4 5 4 4 4 6 5 5 5 6 3 4 2 2 3 2 3 4 6 5 4 2
1 1 1 4 5 5 6 6 7 8 9 14 16 15 13 11 8 8 9 8 7 7 6 5 4 6 7 6 3 3 4 5 5 7 8 6 3 3 4 4 4 4 4 4 5 4 5 5 4
2 1 2 3 3 4 8 9 8 10 12 16 16 14 12 10 8 9 9 9 8 7 7 6 5 6 6 4 2 6 5 5 6 6 7 7 3 2 2 3 4 5 6 4 3 3 4 4 5
1 2 3 3 5 5 9 8 8 10 13 15 15 12 11 9 9 8 8 9 8 7 8 6 5 6 5 4 3 4 5 5 7 6 7 8 6 4 4 3 4 4 5 5 4 4 3 3 3
2 3 3 2 4 5 7 7 8 9 13 14 13 11 11 9 8 8 7 7 8 8 9 6 7 7 8 7 5 5 6 8 6 7 9 9 9 8 5 4 3 5 7 6 5 6 4 4 4
5 5 4 4 5 5 5 7 8 8 11 12 12 11 9 8 8 8 7 7 8 9 9 7 7 8 8 6 5 5 7 6 6 10 12 12 12 10 6 3 4 7 8 5 3 5 4 5 4
7 8 7 6 6 5 5 7 8 8 9 10 12 12 10 9 9 8 7 7 7 8 10 8 7 8 7 6 4 5 6 5 8 10 10 11 12 12 7 4 5 8 5 4 6 5 4 4 4
8 9 8 8 7 6 6 7 10 10 10 9 10 11 11 10 10 9 8 7 7 7 9 9 7 7 6 3 5 4 5 4 7 7 7 8 10 11 9 5 7 7 4 5 5 5 4 4 3
6 5 6 6 6 6 7 9 11 10 10 10 10 11 12 10 11 10 8 8 7 7 9 9 7 6 4 2 4 4 3 4 4 5 6 8 9 9 7 4 4 4 5 6 6 5 5 5 4
7 5 4 5 6 5 6 7 9 10 11 11 11 11 11 11 11 10 10 9 8 7 8 8 7 7 6 3 4 4 4 4 4 3 5 9 10 10 8 5 4 4 5 6 6 5 5 4 4
6 6 5 5 5 5 5 5 8 10 10 10 11 10 11 13 14 12 10 9 8 6 6 8 8 7 6 5 4 4 3 2 3 3 3 6 8 8 8 8 5 4 5 5 6 6 5 4 4
6 6 6 7 6 4 6 5 7 10 9 10 11 11 11 11 13 12 11 10 9 7 6 8 8 7 7 5 3 4 3 3 3 3 2 3 6 6 7 7 6 5 5 6 7 7 5 5 4
4 2 4 5 5 5 7 5 7 11 12 14 13 12 11 12 12 12 12 10 8 7 6 6 8 8 7 6 4 2 3 2 3 3 3 4 4 5 6 6 5 5 4 5 5 6 6 5 5
4 3 3 4 4 7 11 9 6 11 16 17 15 14 13 13 13 12 11 10 8 8 7 6 7 7 6 5 5 4 3 3 4 3 2 2 3 3 4 5 5 5 4 5 4 4 6 5 6
8 5 3 5 5 6 9 8 6 11 16 17 17 16 14 12 12 12 12 11 9 9 8 8 8 7 6 5 4 5 4 3 4 3 2 2 3 3 3 4 4 4 4 5 5 4 5 5 5
11 10 5 3 4 3 7 7 5 9 12 13 15 15 15 14 13 13 13 11 10 10 9 8 8 7 6 5 3 3 4 2 3 3 3 3 3 4 4 4 5 5 5 5 5 4 5 5 6
9 9 7 3 5 3 5 5 5 7 10 12 13 15 16 16 14 14 13 12 11 10 9 8 9 8 6 5 4 3 3 4 4 3 3 4 4 3 4 4 5 5 5 5 5 5 6 6 6
8 6 5 4 3 3 6 8 7 12 12 12 13 14 15 16 15 15 13 12 11 10 9 8 8 8 7 6 4 4 3 5 5 4 4 3 4 4 3 3 5 4 3 5 6 5 4 4 4
10 10 7 5 5 3 2 2 2 11 12 13 13 13 15 16 15 14 13 12 12 11 10 9 8 8 7 7 5 5 4 5 5 4 3 2 3 3 3 3 4 4 4 5 5 4 5 5 5
10 11 9 5 5 5 2 2 4 6 10 11 12 13 14 15 14 14 13 12 12 12 11 10 9 8 7 7 7 6 6 5 5 4 3 1 2 2 4 4 4 5 5 5 4 4 4 5 5
Wind_Direction
291 276 266 260 260 239 54 65 79 66 61 54 54 68 69 57 67 95 128 101 102 100 99 91 87 87 87 86 85 84 84 83 82 81 79 77 75 73 71 64 58 56 55 55 51 47 42 41 42
287 291 283 246 270 340 70 76 77 70 75 74 66 71 73 72 81 97 105 96 97 93 88 88 88 87 87 86 85 84 84 83 82 81 79 76 74 71 68 61 55 51 49 48 47 43 37 35 36
274 270 270 253 296 43 89 85 88 85 78 76 72 60 56 72 82 103 115 102 96 93 91 90 90 89 87 86 85 85 84 82 81 80 78 76 72 68 64 57 51 46 44 43 41 38 32 30 28
279 271 249 261 35 68 98 105 103 96 80 76 82 69 65 70 98 120 117 108 100 98 96 94 92 91 88 86 84 83 82 79 76 75 74 72 68 64 57 52 44 39 38 35 34 30 27 23 18
266 260 263 301 83 90 95 100 100 89 76 76 83 91 86 86 105 112 108 104 104 105 104 102 98 95 91 87 84 81 78 76 72 69 67 65 63 59 53 48 43 39 35 31 30 26 19 16 10
287 267 272 87 100 98 101 99 88 86 93 97 99 101 99 106 105 102 99 101 107 112 113 113 110 105 99 93 86 82 78 74 69 65 64 65 68 67 61 54 46 39 30 26 23 19 13 7 358
285 293 279 112 110 101 94 85 90 96 96 98 108 108 114 111 105 103 101 102 111 120 126 128 130 121 112 105 99 93 87 81 77 77 77 82 109 107 90 72 53 39 31 28 22 10 359 346 330
289 295 298 93 116 100 98 94 90 98 100 115 119 116 126 125 114 111 111 113 114 115 121 127 133 133 133 128 123 122 115 107 113 128 187 219 210 178 131 86 67 45 30 17 4 343 320 304 291
280 280 322 55 101 114 115 108 102 104 103 87 89 111 125 131 127 129 126 123 121 122 126 125 124 128 135 138 138 155 150 152 171 203 256 259 194 174 134 92 102 61 5 328 306 295 288 283 269
251 307 17 60 106 124 125 119 115 112 104 98 101 112 127 138 144 142 140 139 136 131 127 127 128 124 115 101 128 147 136 132 106 76 30 8 53 56 81 124 171 238 271 278 271 275 278 270 250
263 311 16 68 94 118 122 115 108 111 116 123 127 133 141 145 148 136 124 112 111 109 105 111 115 111 108 93 90 81 91 92 61 28 46 36 34 37 77 121 176 257 290 321 297 277 274 264 227
280 24 45 84 92 121 121 105 98 100 122 129 131 137 141 147 145 132 116 109 107 101 94 85 95 96 80 72 81 81 58 65 54 18 44 39 30 21 37 51 16 11 22 6 340 331 345 0 21
221 193 116 112 126 116 110 103 105 107 121 127 133 140 148 145 137 123 121 120 112 115 105 86 72 83 91 82 40 83 57 39 67 29 42 47 41 35 16 60 29 25 17 10 342 354 9 12 9
174 164 142 137 128 118 118 115 115 118 125 132 139 145 143 137 135 126 128 129 123 123 110 102 91 87 96 96 76 68 94 76 52 27 53 51 50 45 18 40 36 24 19 12 1 10 8 10 23
175 169 159 151 146 145 132 122 124 135 137 141 147 147 140 141 134 132 130 124 120 109 98 90 89 79 71 63 58 73 65 64 51 26 33 48 48 51 35 21 26 17 20 22 18 13 10 24 33
195 198 194 187 165 165 152 143 138 146 149 151 152 145 144 143 142 131 126 118 114 110 107 97 89 86 80 69 53 64 58 57 58 42 26 30 37 53 39 19 22 30 24 16 28 18 21 23 30
208 209 195 184 181 180 166 148 155 168 159 161 159 153 156 159 149 136 130 118 110 113 119 111 96 94 93 99 86 73 74 54 62 55 32 23 25 41 42 24 28 35 30 19 30 27 22 22 20
206 206 198 181 183 190 171 161 162 170 169 174 166 162 167 167 156 140 127 108 103 108 108 103 97 101 104 100 98 81 63 59 61 64 43 28 31 36 30 37 34 25 30 31 35 22 21 18 12
234 215 204 175 176 182 177 168 169 172 178 176 176 176 176 169 153 138 134 131 130 126 121 127 135 121 112 96 96 95 86 78 71 70 45 41 37 34 40 37 36 29 33 34 37 20 20 21 26
234 215 189 154 160 172 179 183 180 184 191 181 186 184 176 166 151 145 154 151 143 143 145 136 123 113 103 79 101 104 92 95 92 72 60 52 41 27 31 32 34 46 42 30 34 36 16 10 34
223 216 203 164 172 195 184 194 195 198 198 191 190 191 186 172 159 159 162 146 144 155 147 127 119 117 112 96 76 85 86 85 90 86 64 57 54 40 27 20 25 41 49 39 37 34 36 20 18
221 216 215 182 177 208 203 203 205 200 199 202 196 193 190 175 162 163 157 148 155 155 143 129 126 122 114 116 93 105 101 94 98 104 112 97 72 57 38 27 26 40 44 39 34 31 28 35 20
213 225 231 204 210 238 227 219 211 196 198 203 204 197 184 173 164 162 156 155 151 141 127 118 118 113 111 110 103 80 90 102 97 90 86 93 80 68 48 34 35 49 49 53 49 38 30 35 31
178 196 226 228 230 239 231 225 210 196 199 197 199 198 183 174 166 159 150 143 137 129 123 117 114 116 121 132 139 124 102 96 95 91 91 94 101 79 60 42 37 51 49 47 44 49 48 39 34
199 191 201 204 212 234 224 224 223 199 196 193 191 190 179 170 163 156 149 149 146 144 144 138 134 134 143 157 154 149 148 137 118 109 100 86 95 86 70 55 46 47 46 44 37 44 53 49 47
207 210 213 221 219 229 218 219 214 192 190 188 183 178 171 170 165 157 155 155 152 152 154 151 147 147 155 164 158 137 119 96 90 86 93 83 82 86 84 67 61 48 43 50 38 39 42 45 45
213 220 234 270 283 254 230 212 164 179 181 179 175 173 170 168 164 158 157 158 155 155 156 155 152 152 154 156 139 121 122 110 102 89 78 85 88 95 84 88 82 61 44 44 41 47 38 44 42
226 216 224 229 254 239 216 209 183 178 178 175 172 170 164 164 164 160 160 159 157 153 154 155 157 155 154 153 146 135 115 101 89 84 72 80 90 88 99 100 107 98 74 65 51 43 31 46 55
206 219 224 232 243 271 266 256 229 175 173 174 172 168 163 164 163 159 158 157 153 151 155 161 160 152 152 151 148 141 127 118 115 95 83 67 105 123 106 77 91 97 83 78 63 46 37 35 43
219 219 219 227 247 253 251 273 282 177 166 167 168 165 162 160 157 156 156 156 156 158 164 166 160 155 156 155 152 146 134 136 132 126 133 144 95 104 107 84 73 80 76 75 71 52 44 46 45
Height
1499 1499 1499 1501 1502 1503 1503 1498 1493 1494 1495 1497 1497 1498 1504 1508 1514 1526 1527 1526 1526 1526 1526 1526 1526 1527 1527 1528 1529 1529 1530 1531 1531 1532 1532 1532 1532 1533 1533 1533 1534 1534 1534 1535 1535 1535 1536 1536 1537
1499 1500 1501 1501 1503 1508 1506 1498 1497 1497 1498 1499 1500 1503 1507 1514 1519 1523 1526 1527 1527 1527 1527 1527 1527 1528 1528 1529 1530 1530 1531 1532 1532 1532 1533 1533 1533 1533 1533 1534 1534 1534 1534 1534 1535 1535 1536 1536 1536
1499 1500 1502 1500 1502 1506 1505 1498 1497 1498 1500 1500 1503 1507 1512 1518 1521 1524 1527 1528 1528 1528 1528 1528 1529 1529 1530 1530 1531 1531 1532 1532 1533 1533 1533 1533 1533 1534 1534 1534 1534 1534 1534 1534 1535 1535 1535 1536 1536
1502 1502 1501 1501 1503 1499 1497 1498 1497 1499 1501 1503 1506 1513 1519 1522 1524 1526 1528 1529 1529 1529 1530 1530 1530 1531 1531 1532 1532 1533 1533 1534 1534 1534 1534 1534 1534 1534 1534 1534 1534 1534 1534 1534 1534 1535 1535 1535 1536
1502 1502 1501 1503 1501 1497 1496 1498 1499 1500 1503 1506 1510 1518 1523 1526 1526 1528 1530 1531 1531 1532 1532 1532 1533 1533 1533 1533 1534 1534 1535 1535 1535 1535 1535 1535 1535 1535 1535 1535 1535 1534 1534 1534 1534 1534 1535 1535 1535
1503 1500 1504 1508 1503 1498 1498 1499 1501 1503 1507 1510 1514 1520 1526 1528 1529 1530 1532 1533 1533 1534 1534 1534 1535 1535 1535 1535 1536 1536 1536 1536 1536 1536 1536 1536 1536 1536 1536 1535 1535 1535 1535 1534 1534 1534 1534 1534 1535
1504 1501 1503 1503 1504 1502 1500 1501 1503 1506 1508 1511 1515 1521 1527 1529 1531 1532 1534 1535 1536 1536 1536 1536 1537 1537 1537 1538 1538 1538 1538 1538 1537 1537 1537 1537 1537 1537 1537 1536 1536 1535 1535 1534 1534 1534 1534 1534 1535
1503 1502 1501 1502 1505 1505 1502 1504 1506 1508 1511 1513 1516 1521 1527 1531 1532 1534 1535 1537 1538 1539 1539 1540 1540 1540 1539 1540 1540 1540 1540 1539 1539 1539 1539 1539 1538 1538 1538 1537 1537 1536 1535 1535 1535 1534 1534 1535 1535
1503 1504 1506 1504 1505 1504 1503 1506 1508 1510 1512 1514 1517 1521 1527 1531 1533 1535 1537 1538 1539 1540 1541 1542 1542 1542 1542 1542 1542 1542 1541 1541 1541 1541 1540 1540 1540 1540 1540 1539 1538 1537 1536 1536 1535 1535 1535 1535 1536
1501 1506 1505 1500 1500 1502 1504 1506 1508 1511 1514 1518 1522 1526 1529 1532 1534 1536 1537 1539 1540 1542 1543 1543 1544 1544 1545 1545 1544 1543 1543 1543 1543 1542 1542 1542 1542 1542 1541 1540 1539 1538 1537 1536 1536 1536 1536 1536 1536
1500 1503 1500 1499 1500 1503 1505 1508 1509 1512 1517 1521 1524 1528 1530 1533 1535 1537 1539 1540 1542 1543 1545 1545 1546 1546 1546 1546 1546 1546 1545 1545 1544 1544 1544 1543 1543 1542 1542 1540 1540 1539 1538 1537 1537 1537 1537 1537 1538
1501 1501 1501 1502 1503 1504 1506 1509 1512 1514 1519 1522 1525 1529 1531 1534 1536 1538 1540 1542 1543 1545 1546 1547 1547 1547 1547 1547 1547 1547 1547 1547 1546 1545 1545 1544 1544 1543 1542 1542 1541 1540 1539 1538 1538 1538 1538 1538 1539
1502 1502 1502 1504 1505 1506 1508 1511 1514 1517 1520 1524 1528 1530 1533 1535 1537 1539 1541 1543 1544 1546 1547 1547 1548 1548 1548 1548 1548 1548 1548 1548 1547 1546 1546 1545 1545 1544 1543 1543 1542 1541 1540 1539 1539 1539 1538 1539 1539
1503 1503 1504 1505 1506 1508 1510 1513 1516 1520 1522 1526 1529 1531 1534 1536 1538 1540 1542 1544 1545 1546 1548 1549 1549 1550 1549 1549 1550 1550 1550 1549 1549 1548 1548 1547 1546 1545 1545 1544 1543 1542 1541 1540 1540 1540 1540 1540 1540
1504 1505 1506 1507 1508 1510 1512 1517 1518 1521 1523 1527 1530 1532 1535 1537 1539 1541 1543 1544 1546 1547 1549 1550 1550 1551 1551 1551 1551 1551 1551 1551 1550 1549 1549 1549 1548 1547 1546 1545 1544 1543 1542 1542 1541 1540 1540 1541 1541
1504 1508 1514 1509 1508 1510 1515 1524 1519 1522 1524 1527 1530 1533 1535 1538 1540 1542 1544 1545 1547 1548 1549 1551 1552 1552 1552 1552 1553 1553 1553 1553 1552 1551 1550 1550 1549 1548 1547 1546 1546 1545 1544 1543 1542 1541 1541 1542 1542
1508 1513 1514 1511 1508 1510 1514 1522 1520 1522 1523 1527 1529 1532 1535 1538 1541 1543 1545 1546 1548 1549 1550 1552 1553 1553 1553 1553 1554 1554 1554 1554 1553 1552 1551 1551 1550 1550 1549 1548 1547 1546 1545 1544 1543 1543 1543 1543 1543
1510 1508 1509 1512 1509 1510 1514 1518 1519 1520 1523 1526 1529 1532 1534 1537 1540 1543 1545 1547 1549 1550 1551 1552 1554 1554 1555 1555 1555 1556 1556 1555 1555 1554 1553 1552 1552 1551 1551 1550 1549 1548 1547 1546 1545 1545 1545 1545 1545
1499 1503 1507 1508 1507 1510 1514 1516 1517 1519 1521 1524 1528 1530 1533 1536 1539 1542 1545 1547 1550 1551 1552 1553 1554 1555 1556 1556 1557 1557 1557 1557 1556 1556 1555 1554 1554 1553 1552 1552 1551 1550 1549 1548 1547 1547 1547 1546 1546
1498 1504 1508 1508 1508 1511 1515 1516 1515 1517 1520 1522 1525 1527 1530 1534 1538 1541 1545 1547 1550 1551 1553 1554 1555 1556 1557 1557 1558 1558 1558 1558 1558 1558 1557 1556 1555 1554 1554 1553 1553 1552 1551 1550 1550 1549 1549 1549 1548
1501 1505 1507 1510 1510 1509 1515 1521 1518 1516 1518 1520 1522 1525 1528 1531 1535 1539 1543 1546 1549 1551 1553 1554 1555 1556 1557 1558 1559 1559 1559 1560 1559 1559 1559 1558 1557 1556 1555 1555 1555 1554 1553 1552 1552 1551 1551 1551 1551
1505 1500 1502 1506 1514 1519 1517 1530 1520 1515 1516 1517 1519 1522 1525 1528 1533 1537 1541 1544 1548 1551 1553 1554 1555 1557 1558 1558 1559 1560 1561 1561 1561 1561 1560 1559 1559 1558 1557 1556 1556 1556 1555 1554 1554 1553 1553 1553 1553
1502 1500 1501 1505 1512 1518 1515 1523 1519 1512 1515 1515 1515 1518 1521 1526 1530 1534 1539 1543 1546 1549 1552 1554 1555 1557 1558 1559 1560 1560 1561 1562 1562 1562 1562 1561 1560 1560 1559 1558 1558 1557 1557 1556 1556 1556 1555 1555 1555
1500 1504 1506 1508 1514 1526 1515 1518 1516 1507 1506 1507 1510 1514 1518 1522 1527 1532 1537 1541 1545 1548 1551 1553 1555 1556 1557 1559 1560 1561 1562 1562 1563 1563 1563 1562 1562 1561 1560 1560 1560 1559 1559 1558 1558 1558 1557 1557 1557
1502 1512 1524 1527 1528 1523 1505 1509 1505 1493 1493 1498 1504 1509 1514 1519 1524 1530 1534 1539 1543 1546 1549 1552 1554 1555 1557 1559 1560 1561 1562 1563 1563 1563 1563 1563 1563 1562 1562 1562 1561 1561 1560 1560 1560 1560 1559 1559 1559
1501 1506 1522 1530 1525 1515 1503 1505 1493 1484 1487 1493 1498 1504 1511 1516 1522 1527 1532 1537 1541 1544 1547 1550 1552 1555 1556 1558 1560 1561 1562 1563 1563 1564 1564 1564 1564 1563 1563 1563 1563 1562 1562 1562 1562 1561 1561 1561 1561
1500 1503 1501 1513 1514 1519 1508 1494 1487 1482 1485 1490 1495 1501 1507 1513 1519 1524 1530 1534 1538 1542 1545 1548 1551 1553 1555 1557 1559 1560 1562 1563 1563 1564 1564 1564 1564 1564 1564 1564 1564 1563 1563 1563 1563 1563 1562 1562 1562
1494 1497 1504 1513 1521 1521 1509 1499 1494 1486 1485 1487 1492 1497 1503 1510 1516 1522 1527 1532 1536 1540 1543 1547 1549 1552 1554 1556 1558 1560 1561 1562 1563 1564 1564 1565 1565 1565 1565 1565 1565 1565 1564 1564 1564 1564 1564 1564 1563
1496 1498 1499 1503 1505 1516 1518 1505 1477 1478 1480 1484 1489 1495 1501 1507 1513 1519 1524 1530 1534 1538 1541 1545 1548 1550 1553 1555 1557 1559 1560 1561 1563 1563 1564 1565 1565 1566 1566 1566 1566 1566 1566 1566 1565 1565 1565 1565 1565
1488 1491 1496 1509 1507 1502 1510 1506 1476 1474 1477 1482 1487 1493 1499 1505 1511 1517 1522 1527 1531 1535 1539 1542 1545 1548 1551 1554 1556 1558 1559 1561 1562 1563 1564 1565 1565 1566 1566 1567 1567 1567 1567 1567 1567 1566 1566 1566 1566